星链-2319 (STARLINK-2319 )

导读

STARLINK-2319是美国太空探索技术公司(SpaceX)开发的星链(Starlink)卫星,于2021年3月11日发射,属于Starlink v2.0 mini平台。该卫星运行在近地轨道,轨道倾角53.157°,近地点约474公里,远地点约476公里,周期约94分钟,目前仍在正常工作。它是星链巨型低轨互联网星座的组成部分,旨在为全球尤其偏远地区提供高速宽带互联网服务。

基本信息
目录编号:
47790
目录名称:
STARLINK-2319
国际标识:
2021-018D
轨道中心:
EARTH
卫星名称:
星链-2319
卫星全名:
星链-2319 (STARLINK-2319 )
卫星状态:
在轨 (已飞行2003 天)
发射日期:
2021-03-11 UTC
国别 :
美国 (US)
星等 :
--
轨道信息
数据来源 国际轨道数据 AOE轨道数据
星历时间 2026-09-04T14:11:04+0800
10小时前
查看轨道信息
2026-08-30T22:00:00+0800
5天前
查看轨道信息
半长轴 6848.872km 6848.858km
偏心率 0.0001382 0.0001046
轨道倾角 53.158° 53.160°
近地点辐角 76.361° 77.159°
升交点赤经 105.694° 127.458°
平近点角 283.755° 53.589°
近地点 469.788km 470.004km
远地点 471.682km 471.438km
周期 94.013分钟 94.013分钟
每日圈数 15.317018 15.317067
详细信息
固有亮度:
5
最大亮度:
2.5
卫星平台:
Starlink V1.0
覆盖范围:
全球
运营商:
太空探索技术公司
运营商所在国:
美国
制造商(研发单位):
太空探索技术公司
制造商所在国:
美国
使用方式:
暂无
卫星简介
星链(Starlink)计划是由太空探索技术公司(SpaceX)提出的一个巨型低轨卫星互联网星座项目,计划在2019年至2024年间在太空搭建由约1.2万颗卫星组成的“星链”网络,其中1584颗将部署在地球上空550千米处的近地轨道,并从2020年开始工作。该卫星仍在工作。
2D轨道图
3D轨道图
轨道高度分析图
轨道倾角分析图
轨道综合分析图
查看轨道综合分析图
交会数据列表
事件ID 空间交会对象 最接近时刻(TCA) 交会距离 交会风险概率(CRP) 交会风险指数(CRI) 操作
CDM_260905-010504-779006-529522
2026-09-05T
01:05:40+0000
2.645 km
极远距离
1.587365E-6 低风险 0.39
CDM_260906-011004-779006-816121
2026-09-06T
01:10:42+0000
2.903 km
极远距离
1.391383E-6 低风险 0.38
CDM_260829-214904-779006-670322
2026-08-29T
21:49:27+0000
2.920 km
极远距离
1.381813E-6 低风险 0.38
CDM_260905-023704-779006-964921
2026-09-05T
02:37:35+0000
2.921 km
极远距离
1.379486E-6 低风险 0.38